Temp
62 62 62 61 61 61 61 61 61 62 62 62 62 62 62 62 62 59 68 79 78 73 76 74 73 75 74 71 70 65 53 49 53 55 59 65 61 65 68 62 63 64 63 65 68
61 61 61 61 61 61 61 61 61 61 61 62 62 62 62 62 59 65 80 76 74 75 79 76 73 74 69 67 69 62 52 56 62 63 60 63 62 63 64 62 61 61 65 67 68
61 61 61 61 61 60 60 60 61 61 61 61 62 62 62 59 65 74 79 75 74 76 80 79 77 74 67 65 67 62 56 63 65 67 67 62 61 65 61 59 63 60 62 64 65
59 60 60 60 60 60 60 60 61 62 62 61 61 62 62 61 63 76 76 75 75 77 79 78 74 66 62 62 65 62 64 65 67 68 65 61 62 58 58 56 64 64 65 65 63
58 59 60 60 60 60 60 60 61 61 61 61 61 62 61 64 72 73 77 76 77 77 78 74 71 67 62 63 64 61 62 63 65 63 62 63 58 59 57 60 65 65 65 63 62
58 58 59 59 59 59 59 59 59 59 60 61 62 62 65 66 76 76 77 76 78 75 74 74 74 70 65 64 62 61 62 62 63 61 62 57 56 59 60 64 63 64 63 64 62
58 57 58 59 59 59 59 58 58 59 60 62 63 69 67 71 79 77 79 75 76 79 77 77 78 72 64 62 65 65 57 60 60 62 59 61 56 56 61 63 61 62 62 60 59
58 57 57 58 59 59 59 59 59 59 61 62 64 67 70 79 76 77 74 77 78 78 80 79 77 69 65 65 64 59 57 51 53 60 61 59 51 57 63 62 59 61 60 58 58
58 57 56 58 59 59 59 58 59 61 62 65 64 65 70 76 81 83 82 81 80 79 78 86 74 65 64 58 53 53 46 49 53 60 59 57 53 58 62 61 58 56 56 58 58
58 57 56 56 58 58 57 58 62 62 64 70 75 68 75 75 80 85 81 86 80 77 76 73 65 60 56 55 49 49 48 51 49 56 57 53 53 58 60 60 56 55 57 57 58
58 56 56 56 57 57 58 63 71 70 67 70 75 74 77 82 84 82 85 81 79 74 64 65 62 58 62 61 62 59 53 49 51 57 53 55 54 55 59 59 55 56 56 55 57
57 56 56 57 57 56 55 75 73 73 68 76 77 77 81 80 78 80 85 75 72 65 64 62 57 66 68 65 63 58 51 47 53 56 53 54 51 55 54 55 58 56 55 55 58
56 55 56 56 56 59 69 74 76 74 66 76 77 77 78 82 77 78 83 74 69 64 62 60 64 71 68 62 61 55 53 47 49 53 54 51 48 51 55 56 59 55 56 57 59
55 55 55 55 62 68 73 75 74 74 61 70 74 81 81 79 75 84 83 78 68 63 64 61 67 66 61 60 60 52 60 56 52 48 41 49 37 46 51 51 53 56 54 54 56
55 55 55 55 62 73 75 70 70 74 48 71 73 82 77 77 75 78 80 77 69 65 65 59 62 61 60 61 64 57 60 56 53 46 43 44 39 43 48 48 50 52 53 53 55
55 55 55 58 58 73 71 71 74 62 48 67 73 72 72 74 76 75 76 78 74 67 67 62 67 64 60 66 63 62 57 53 47 43 35 41 40 39 44 49 51 54 54 55 55
55 54 52 62 74 72 71 72 59 53 69 67 67 71 68 67 71 70 67 64 61 57 54 61 61 63 66 60 60 57 46 37 37 36 34 44 40 41 50 53 52 53 54 55 56
53 52 52 64 66 69 74 65 51 63 64 73 71 69 66 69 68 67 64 59 65 61 55 51 50 60 66 57 52 51 49 41 35 32 35 44 36 42 52 54 54 54 53 55 55
52 53 59 67 66 68 70 55 56 62 71 70 68 63 63 68 67 65 60 61 65 64 54 51 50 64 65 63 58 51 45 48 39 37 34 38 44 51 53 54 55 54 54 54 54
56 60 64 70 69 70 64 55 61 70 74 71 61 64 57 61 62 60 58 64 64 65 60 54 47 59 63 63 60 55 55 43 39 32 30 37 37 38 47 49 53 53 53 53 54
59 63 71 69 70 65 58 59 65 75 74 68 63 63 62 62 61 58 58 63 65 63 61 53 49 51 56 51 48 49 46 42 40 37 31 32 36 47 47 51 50 52 53 52 53
59 60 71 71 63 52 59 65 64 73 74 71 69 65 62 61 59 59 58 60 65 63 55 53 47 43 47 57 58 51 45 43 38 35 35 34 35 49 47 49 49 50 54 55 53
59 59 70 72 57 55 61 67 70 72 67 68 66 65 63 59 55 60 60 66 65 61 56 55 44 39 44 50 54 48 49 44 41 39 34 33 34 51 50 48 48 48 51 54 56
60 61 64 61 58 59 58 61 65 73 69 67 66 65 61 58 57 57 59 64 64 60 60 56 45 44 40 42 47 45 47 46 41 35 35 35 38 43 45 47 49 50 53 53 55
59 58 60 58 61 57 58 62 64 64 68 67 64 62 58 53 55 54 59 60 64 61 56 53 44 45 47 50 49 46 44 45 41 40 37 39 40 43 47 48 49 51 53 55 55
61 60 59 57 60 59 57 61 65 64 64 64 61 61 59 54 55 55 58 54 54 58 52 50 44 45 44 50 49 44 46 46 46 45 44 43 44 51 53 52 51 52 53 51 51
60 62 63 54 58 58 60 64 66 66 66 66 64 60 59 59 60 57 56 55 55 55 51 48 45 41 37 48 47 42 43 45 46 46 46 42 47 52 49 49 48 48 49 49 50
MSLP
1015.58 1015.32 1015.14 1014.87 1014.45 1014.17 1014.01 1013.63 1013.30 1013.16 1012.98 1012.80 1012.82 1012.73 1012.50 1012.33 1012.06 1011.89 1010.77 1009.39 1009.20 1009.66 1010.01 1010.67 1010.85 1011.25 1011.48 1012.30 1012.99 1013.64 1015.54 1016.73 1016.65 1017.14 1017.28 1017.65 1018.04 1018.65 1018.81 1019.11 1019.56 1019.93 1019.91 1020.29 1021.01
1015.58 1015.24 1014.87 1014.59 1014.18 1014.11 1013.89 1013.35 1013.15 1013.11 1012.81 1012.71 1012.73 1012.57 1012.36 1012.30 1011.87 1010.78 1008.71 1008.76 1008.85 1009.38 1009.80 1010.04 1010.96 1011.34 1011.84 1012.58 1013.29 1014.07 1015.55 1015.72 1016.15 1016.51 1016.92 1017.73 1018.08 1018.59 1019.09 1019.53 1020.11 1020.39 1020.62 1021.20 1021.46
1015.47 1015.28 1015.07 1014.75 1014.42 1014.14 1013.59 1013.16 1013.06 1012.87 1012.71 1012.57 1012.56 1012.43 1012.15 1012.18 1011.37 1009.24 1008.14 1008.57 1008.86 1009.05 1009.15 1009.78 1010.40 1011.08 1012.08 1012.55 1013.46 1014.11 1015.44 1016.06 1016.27 1016.47 1016.79 1017.74 1018.57 1018.98 1019.51 1020.04 1020.23 1020.80 1021.00 1021.57 1022.07
1015.52 1015.14 1014.79 1014.38 1014.07 1013.70 1013.38 1013.02 1012.88 1012.76 1012.61 1012.40 1012.35 1012.27 1011.92 1011.81 1010.61 1008.54 1008.32 1008.40 1008.87 1009.13 1009.37 1010.07 1010.62 1011.47 1012.47 1013.09 1013.55 1014.68 1015.85 1016.09 1016.76 1017.33 1017.80 1018.58 1019.09 1019.66 1020.24 1020.39 1020.22 1020.92 1021.26 1021.80 1022.28
1015.41 1015.00 1014.72 1014.40 1013.91 1013.52 1013.20 1012.96 1012.78 1012.62 1012.44 1012.29 1012.14 1012.02 1011.78 1011.06 1009.41 1008.45 1008.43 1008.65 1009.10 1009.44 1009.45 1010.01 1010.59 1011.48 1012.64 1013.41 1014.03 1015.01 1016.23 1016.82 1017.40 1017.85 1018.66 1019.11 1019.81 1020.42 1020.88 1020.94 1020.61 1021.14 1021.53 1022.17 1022.42
1015.44 1015.04 1014.66 1014.18 1013.66 1013.41 1013.24 1013.09 1012.72 1012.45 1012.24 1012.11 1011.84 1011.79 1011.38 1010.14 1008.67 1008.63 1008.75 1008.93 1009.37 1009.49 1009.84 1010.10 1010.46 1011.21 1012.57 1013.74 1014.59 1015.72 1016.49 1017.37 1017.85 1018.36 1018.93 1019.78 1020.41 1020.58 1021.46 1021.37 1021.56 1021.85 1022.18 1022.50 1022.95
1015.24 1014.94 1014.55 1014.12 1013.77 1013.41 1013.09 1012.85 1012.48 1012.17 1012.07 1011.92 1011.62 1011.33 1010.68 1009.42 1008.58 1008.88 1008.92 1009.19 1009.59 1009.55 1009.77 1010.14 1010.61 1011.60 1012.81 1014.20 1015.29 1015.95 1017.10 1017.69 1018.41 1018.63 1019.37 1019.54 1020.33 1020.80 1021.36 1021.74 1022.20 1022.52 1022.94 1023.26 1023.85
1015.09 1014.81 1014.39 1013.94 1013.52 1013.00 1012.53 1012.26 1012.03 1011.81 1011.82 1011.68 1011.45 1011.12 1009.84 1008.54 1008.64 1009.14 1009.23 1009.40 1009.35 1009.41 1009.63 1010.00 1010.52 1012.22 1013.59 1014.44 1015.29 1016.13 1017.00 1017.97 1018.48 1018.78 1019.29 1019.86 1020.88 1021.42 1021.76 1022.04 1022.58 1023.13 1023.63 1023.83 1024.15
1014.93 1014.60 1014.31 1013.81 1013.32 1012.66 1012.05 1011.74 1011.33 1011.21 1011.38 1011.45 1011.49 1010.83 1009.19 1008.67 1008.72 1008.58 1008.76 1009.11 1009.38 1009.60 1010.05 1010.55 1011.16 1013.33 1014.34 1015.11 1016.20 1016.74 1017.67 1018.39 1019.10 1019.24 1019.71 1020.44 1021.07 1021.75 1021.81 1022.45 1023.06 1023.62 1023.85 1023.76 1023.81
1014.78 1014.43 1014.07 1013.66 1012.95 1012.33 1011.82 1011.40 1011.19 1011.06 1011.44 1011.28 1010.98 1010.64 1008.77 1008.01 1007.47 1007.74 1008.69 1008.49 1009.16 1010.07 1010.48 1010.90 1012.20 1013.51 1014.51 1015.10 1015.71 1016.60 1017.85 1018.86 1019.56 1020.09 1020.29 1021.09 1021.67 1021.84 1022.17 1022.58 1023.27 1023.36 1023.53 1023.38 1023.53
1014.55 1014.20 1013.93 1013.39 1012.69 1012.36 1011.62 1011.39 1011.59 1011.13 1010.61 1010.11 1009.66 1008.98 1008.03 1007.36 1007.05 1007.37 1007.83 1008.42 1008.95 1009.72 1010.65 1011.39 1012.39 1013.19 1013.27 1013.82 1014.71 1015.84 1017.35 1018.82 1019.92 1020.57 1021.03 1021.68 1022.08 1022.31 1022.33 1022.61 1023.18 1023.22 1023.26 1023.09 1023.20
1014.43 1014.03 1013.57 1012.95 1012.66 1012.23 1012.07 1011.35 1010.95 1010.75 1010.12 1008.87 1008.74 1008.39 1007.70 1007.29 1007.38 1007.25 1007.08 1008.01 1008.74 1009.93 1010.77 1011.79 1012.24 1012.13 1012.44 1013.13 1014.13 1015.54 1017.33 1019.27 1020.21 1020.57 1021.20 1022.13 1022.63 1022.92 1023.04 1023.14 1023.14 1023.51 1023.65 1023.82 1023.85
1014.28 1013.89 1013.36 1012.80 1012.49 1012.08 1011.65 1010.70 1010.11 1010.34 1010.16 1008.50 1007.98 1007.55 1007.26 1007.41 1007.53 1007.38 1007.42 1008.04 1008.93 1010.02 1010.82 1011.53 1011.62 1011.71 1012.20 1013.06 1013.91 1015.54 1016.77 1018.75 1019.76 1021.04 1021.61 1022.37 1023.14 1023.29 1023.31 1023.36 1023.35 1023.75 1023.88 1023.94 1023.87
1014.13 1013.72 1013.23 1012.54 1012.59 1011.73 1010.98 1010.22 1010.05 1010.18 1009.97 1008.46 1007.56 1006.61 1006.87 1007.05 1007.35 1007.10 1007.29 1008.05 1009.17 1010.13 1011.03 1011.62 1011.74 1012.02 1012.71 1013.32 1014.04 1015.32 1015.92 1017.81 1019.55 1020.71 1022.36 1022.80 1023.62 1023.56 1023.21 1023.25 1023.21 1023.43 1023.67 1023.91 1023.93
1013.92 1013.49 1013.22 1012.97 1012.50 1011.27 1010.46 1010.10 1009.86 1009.97 1009.73 1008.26 1007.00 1006.18 1006.61 1007.20 1007.44 1007.61 1007.50 1007.99 1009.30 1010.49 1011.26 1012.16 1012.16 1012.61 1013.09 1013.63 1014.25 1015.66 1016.67 1018.16 1019.85 1021.10 1022.41 1023.12 1023.40 1023.31 1023.19 1023.01 1022.91 1023.18 1023.47 1023.65 1023.61
1013.76 1013.33 1013.12 1012.83 1012.42 1010.11 1009.72 1009.59 1009.67 1010.13 1009.39 1008.22 1007.21 1006.84 1007.39 1007.77 1008.10 1008.27 1008.23 1008.48 1009.61 1010.89 1011.69 1012.38 1012.45 1013.21 1013.49 1014.04 1014.83 1016.21 1017.53 1019.14 1020.67 1021.97 1023.25 1023.51 1023.61 1023.68 1023.35 1023.13 1022.92 1022.80 1022.91 1023.01 1023.14
1013.53 1013.06 1013.20 1012.36 1010.91 1009.75 1009.45 1009.68 1010.40 1010.28 1009.49 1008.71 1007.98 1007.73 1008.10 1008.90 1009.28 1009.54 1009.95 1010.41 1011.05 1011.99 1012.82 1013.23 1013.79 1013.81 1013.97 1014.73 1015.77 1016.63 1018.16 1020.24 1021.85 1022.84 1023.79 1023.64 1023.65 1023.40 1022.93 1022.75 1022.85 1022.79 1022.67 1022.70 1022.75
1013.09 1012.61 1012.25 1011.18 1010.28 1010.17 1009.78 1010.45 1010.71 1010.19 1009.37 1008.64 1008.39 1008.51 1009.16 1009.51 1010.29 1010.72 1011.19 1011.95 1012.16 1012.66 1013.78 1014.56 1014.95 1014.93 1015.07 1015.67 1016.31 1017.00 1018.32 1019.96 1021.82 1023.53 1024.04 1023.76 1023.75 1023.20 1022.63 1022.48 1022.52 1022.54 1022.46 1022.45 1022.67
1012.61 1012.34 1012.04 1010.29 1010.15 1010.41 1010.73 1011.27 1010.82 1010.00 1009.24 1008.94 1008.87 1009.44 1009.92 1010.26 1010.73 1011.52 1012.28 1012.89 1013.16 1013.45 1014.36 1015.15 1015.91 1015.83 1015.85 1016.11 1016.65 1017.33 1018.69 1020.14 1022.04 1023.93 1024.44 1024.55 1023.98 1023.02 1022.79 1022.62 1022.68 1022.75 1022.66 1022.65 1022.67
1012.82 1012.50 1011.45 1010.08 1009.98 1010.19 1011.00 1011.32 1010.77 1009.84 1009.25 1009.02 1009.57 1010.03 1010.87 1011.40 1011.88 1012.47 1013.07 1013.45 1013.80 1014.12 1014.28 1015.59 1016.70 1017.03 1016.76 1016.65 1017.14 1017.79 1019.38 1020.75 1022.32 1024.30 1025.08 1025.09 1024.67 1024.24 1023.71 1023.45 1023.15 1023.06 1022.97 1022.77 1022.70
1012.90 1012.53 1010.93 1010.20 1010.31 1011.15 1011.89 1011.64 1010.67 1009.41 1009.29 1009.33 1009.89 1010.66 1011.50 1012.00 1012.63 1013.38 1014.00 1014.02 1014.21 1014.65 1015.05 1016.17 1017.31 1018.45 1017.97 1018.49 1018.75 1018.98 1020.09 1021.72 1023.08 1024.60 1025.24 1025.60 1025.47 1025.10 1024.71 1024.40 1024.35 1023.93 1023.71 1023.55 1023.22
1012.99 1012.82 1010.98 1010.79 1011.50 1012.66 1012.36 1011.49 1010.61 1009.87 1009.43 1009.82 1010.40 1011.32 1012.16 1012.70 1013.53 1013.88 1014.25 1014.52 1014.64 1014.92 1016.07 1017.08 1018.59 1019.54 1019.57 1019.21 1019.20 1019.77 1020.88 1021.87 1023.36 1025.19 1025.64 1025.84 1026.26 1025.91 1025.36 1025.16 1025.07 1025.07 1024.58 1023.80 1023.77
1013.59 1012.87 1011.19 1010.89 1012.23 1013.08 1012.12 1011.45 1010.86 1010.24 1010.61 1010.72 1011.49 1012.08 1012.73 1013.56 1014.21 1014.30 1014.65 1014.78 1014.94 1015.72 1016.41 1017.25 1019.43 1020.54 1020.66 1020.43 1020.01 1020.98 1021.70 1022.42 1023.46 1024.58 1025.90 1026.36 1026.60 1026.11 1025.93 1025.84 1026.06 1025.65 1025.05 1024.57 1024.23
1013.80 1013.41 1012.67 1012.54 1012.72 1012.82 1012.27 1011.88 1011.18 1010.88 1011.15 1011.57 1012.10 1012.22 1013.14 1014.08 1014.43 1014.78 1015.09 1015.38 1015.61 1016.30 1016.83 1017.42 1019.82 1020.54 1021.07 1021.04 1021.46 1022.11 1022.59 1022.94 1023.60 1024.96 1025.98 1026.37 1026.50 1026.39 1026.21 1026.05 1025.82 1025.79 1025.23 1025.21 1025.14
1013.96 1014.33 1013.84 1013.68 1013.20 1012.80 1012.43 1011.97 1011.68 1011.77 1011.89 1012.17 1012.91 1013.44 1013.76 1014.62 1014.97 1015.33 1015.41 1015.82 1016.20 1016.79 1017.43 1018.72 1020.98 1021.34 1021.94 1021.93 1022.23 1023.24 1023.72 1023.85 1024.39 1025.17 1025.74 1026.34 1026.52 1026.58 1026.40 1026.44 1026.19 1026.06 1025.82 1025.34 1025.11
1014.23 1014.14 1013.95 1013.97 1013.46 1013.02 1012.73 1012.34 1011.98 1012.46 1012.59 1013.03 1013.71 1014.24 1014.19 1014.94 1015.35 1015.84 1015.98 1016.49 1017.05 1017.61 1018.65 1019.98 1021.68 1022.35 1023.30 1023.21 1022.91 1023.67 1024.15 1024.44 1025.02 1025.45 1025.88 1026.18 1026.34 1026.36 1025.99 1026.31 1026.28 1026.22 1026.06 1025.86 1025.55
1014.23 1013.77 1013.54 1014.27 1013.84 1013.48 1012.79 1012.32 1012.27 1012.34 1013.35 1013.27 1013.95 1014.24 1015.07 1015.53 1015.61 1016.19 1016.47 1017.06 1017.47 1018.21 1019.68 1020.86 1022.12 1023.13 1023.99 1023.83 1023.68 1024.14 1024.55 1024.74 1025.33 1025.76 1025.95 1026.22 1026.58 1026.21 1026.11 1026.34 1026.48 1026.38 1026.23 1026.03 1025.72
Wind_Speed
12 11 10 9 9 8 10 9 9 8 8 10 11 9 9 9 7 1 3 6 6 15 10 6 2 3 2 4 3 2 6 2 5 6 4 6 5 2 2 4 3 5 3 9 11
12 11 12 11 10 9 10 9 9 9 9 10 10 9 8 7 1 2 7 9 10 13 7 9 5 4 3 3 3 5 5 8 4 4 5 5 4 7 6 6 3 7 12 12 11
12 10 8 7 8 9 9 9 10 10 10 10 10 8 8 3 1 4 6 9 10 9 4 4 10 6 3 1 3 2 3 4 4 5 11 6 5 1 8 6 5 12 13 11 9
13 12 11 10 11 10 9 10 11 11 11 10 10 8 8 1 6 3 7 8 9 5 3 7 5 4 5 2 3 7 8 5 6 5 6 4 4 4 4 4 12 11 14 8 9
14 14 12 11 11 10 11 12 11 11 11 10 9 7 1 2 5 2 9 4 5 2 4 3 3 4 5 3 3 6 4 8 12 14 9 8 7 5 4 4 11 10 9 9 8
14 14 13 13 13 12 11 12 11 11 11 10 9 6 0 5 2 8 9 4 3 1 4 1 4 4 6 5 5 4 10 6 7 6 5 7 3 2 4 7 9 9 9 8 6
15 15 14 14 13 13 12 11 11 12 11 9 6 2 1 3 4 7 7 4 2 2 4 2 7 4 2 5 5 6 7 5 3 2 4 4 5 4 8 7 7 8 7 10 11
16 15 16 14 14 14 14 12 12 13 9 6 2 1 3 3 7 7 2 1 3 0 3 6 9 9 5 3 5 5 5 3 1 2 2 4 1 6 7 8 7 7 7 6 8
16 16 16 15 14 15 16 14 12 8 5 5 1 2 1 5 5 7 6 3 5 2 4 5 7 5 3 5 4 3 1 2 3 2 4 2 3 7 7 6 8 8 5 8 8
16 16 16 15 15 15 17 4 6 7 2 3 2 3 2 0 2 6 6 5 6 7 5 2 5 4 4 3 5 3 5 5 4 4 8 6 6 7 5 6 9 9 9 8 7
17 16 16 15 14 13 8 0 5 4 2 4 5 3 2 3 0 2 7 5 5 5 4 4 6 3 5 7 5 6 7 7 2 4 7 9 9 8 1 7 11 8 7 10 8
17 17 17 15 13 13 3 6 4 4 6 3 5 5 4 1 4 2 2 3 2 4 3 6 1 4 1 4 4 7 9 4 3 5 7 9 8 7 6 6 3 11 9 6 6
18 17 17 15 13 5 1 2 4 4 2 6 4 3 3 6 6 5 6 3 2 3 3 5 4 2 4 2 3 3 6 6 7 7 6 6 3 2 2 2 1 2 1 3 5
18 17 16 18 3 1 2 2 3 5 5 5 3 4 4 5 2 5 4 5 3 1 6 2 2 2 2 2 4 2 1 13 16 5 4 0 2 2 1 2 3 4 6 6 6
18 16 14 9 3 1 2 5 3 3 4 2 3 1 1 6 2 7 1 4 6 4 3 1 2 0 2 2 4 3 6 11 5 6 5 7 5 4 1 5 4 5 8 8 7
17 15 14 2 1 6 6 5 3 7 2 4 2 2 5 5 5 2 3 8 3 6 6 3 3 4 2 6 9 12 13 9 6 3 4 3 3 5 3 3 5 4 6 8 7
17 14 6 4 3 6 5 4 7 4 3 6 3 3 5 4 6 6 5 7 3 4 2 5 5 2 5 6 3 7 5 4 3 4 3 3 3 6 4 4 4 8 8 7 7
18 10 6 5 3 7 4 7 2 2 4 3 3 3 5 3 5 6 3 5 6 5 4 2 4 7 9 3 1 2 6 5 4 3 2 4 1 4 5 2 4 5 5 3 6
13 1 3 4 4 3 6 4 6 5 3 3 3 6 5 5 5 5 5 3 3 5 2 4 2 3 6 3 2 1 5 3 8 3 3 2 3 6 6 4 3 6 5 6 7
2 3 4 5 2 6 6 3 3 3 4 2 4 2 3 5 4 5 3 3 5 6 2 2 4 4 5 6 5 7 4 1 4 4 2 3 3 3 7 7 6 6 7 8 7
3 4 4 1 3 7 3 4 5 5 5 3 2 5 4 3 4 3 3 2 3 1 7 3 5 6 4 5 3 6 4 6 6 3 5 3 3 4 7 7 9 11 11 10 9
3 3 4 2 5 2 1 3 4 4 7 7 6 5 4 4 5 3 3 1 5 1 3 1 6 3 2 3 4 2 2 4 5 2 2 4 2 8 7 9 11 13 14 16 8
3 2 3 4 2 2 5 3 3 4 6 5 5 6 4 4 5 3 2 4 8 1 4 5 2 4 6 7 5 6 4 4 5 4 1 4 4 7 9 12 10 10 13 15 18
3 3 5 5 1 5 1 2 2 5 6 5 4 6 5 6 5 4 3 5 4 4 8 9 4 5 6 5 3 4 6 3 5 4 3 1 1 8 7 9 10 11 13 9 8
4 1 3 1 3 2 2 2 3 5 4 7 6 7 3 3 3 2 2 2 5 5 5 6 4 4 7 8 9 6 7 10 7 2 3 1 3 3 3 6 5 4 6 7 9
3 3 3 2 3 2 2 2 4 3 5 4 7 4 5 4 4 6 4 2 1 6 5 5 4 5 7 6 9 8 5 7 7 5 5 3 2 4 4 2 3 5 7 7 8
2 0 5 3 2 2 2 2 3 8 7 5 6 8 11 4 5 5 5 6 5 5 3 4 5 4 3 6 4 5 1 5 5 4 1 3 3 5 4 4 4 6 6 6 7
Wind_Direction
341 342 345 342 343 342 317 311 322 319 317 306 300 303 308 318 314 172 229 200 171 163 117 143 199 105 89 84 72 121 68 185 207 144 151 141 122 52 117 90 35 357 20 112 127
341 343 345 339 339 325 304 315 315 310 308 298 296 305 307 324 8 250 248 168 154 157 121 173 113 107 57 79 47 74 108 210 142 146 138 112 97 138 151 147 95 96 95 118 126
341 340 338 330 312 299 311 315 308 309 300 297 298 306 305 299 107 240 186 167 159 179 165 106 118 118 68 62 59 124 127 60 33 97 122 118 105 174 133 182 143 146 131 135 131
343 339 337 331 316 312 310 310 306 302 297 300 303 310 313 171 143 217 150 183 135 185 111 105 50 61 71 44 57 78 39 62 115 80 83 92 81 66 30 328 118 145 146 139 131
343 337 334 325 312 313 312 307 300 295 294 298 299 315 182 74 242 126 129 121 101 57 97 122 104 129 130 113 72 86 121 58 72 77 75 76 67 84 73 60 103 125 133 134 135
341 333 329 325 319 313 304 294 295 291 290 292 292 301 14 99 68 136 125 114 53 60 90 132 164 173 110 65 53 94 91 103 55 85 87 107 137 71 71 106 101 119 131 132 113
339 334 330 324 317 310 302 293 293 287 284 285 291 304 81 115 120 153 130 160 151 142 142 182 121 71 92 86 138 153 82 87 65 91 123 150 47 70 138 110 114 111 94 76 45
339 335 329 327 321 315 302 291 280 273 275 270 235 73 240 79 124 119 86 331 301 139 64 118 98 96 64 118 50 75 70 133 133 143 149 17 39 126 155 141 119 102 86 120 180
338 333 326 326 319 308 302 300 279 224 198 142 126 59 313 131 168 174 134 160 121 92 98 99 60 89 58 89 31 6 168 79 49 4 108 60 116 149 173 136 106 98 165 203 215
335 329 327 322 316 313 318 253 127 121 149 198 236 53 330 190 201 159 167 176 104 107 94 62 64 87 49 102 244 157 136 73 116 7 53 79 84 156 167 143 139 181 196 200 264
334 329 327 318 316 322 340 121 14 353 65 189 244 229 255 246 27 71 137 119 118 69 97 1 67 263 247 209 61 106 82 99 79 126 83 85 69 36 253 221 167 209 203 222 221
332 331 327 316 320 320 288 91 128 171 318 249 236 278 278 90 26 310 136 130 175 105 99 28 179 232 35 106 115 101 113 92 68 66 89 99 74 58 47 14 134 199 230 253 259
333 331 325 317 322 311 337 173 119 92 147 296 196 201 197 133 189 247 138 104 100 121 162 149 236 98 33 1 41 130 141 184 149 104 40 109 105 134 188 119 47 280 278 243 265
332 332 329 322 325 272 265 128 249 186 66 291 290 261 121 133 225 201 163 131 49 169 156 106 19 93 17 303 109 305 177 138 139 121 152 202 176 202 226 280 220 209 246 234 254
331 331 332 338 289 275 101 318 157 72 75 313 274 88 107 137 219 359 21 70 158 105 108 316 50 12 231 65 163 199 103 129 100 82 107 359 78 264 327 320 321 223 219 225 230
328 328 334 160 234 254 329 311 63 44 349 347 314 38 78 22 15 18 49 50 121 81 41 52 54 72 300 24 94 107 87 56 59 91 51 295 115 303 294 288 310 301 245 223 229
325 319 310 315 235 332 315 51 40 102 310 327 352 43 87 14 40 30 39 30 79 93 58 19 9 360 41 93 43 86 62 32 346 12 224 281 75 231 266 243 239 278 278 245 229
324 311 212 237 299 348 38 50 85 248 253 312 356 88 108 118 16 11 74 45 25 58 86 155 319 6 334 35 158 220 145 156 248 190 237 341 25 270 251 255 267 281 291 286 229
316 304 293 269 219 155 73 73 203 209 253 314 50 60 25 35 109 67 40 57 22 46 110 128 74 311 45 342 16 337 52 158 106 30 79 279 279 341 2 343 326 341 339 302 276
46 2 285 318 202 60 71 216 241 231 323 44 103 86 79 5 67 63 12 19 347 29 156 124 97 13 345 20 17 92 145 67 24 130 135 328 327 259 339 327 323 299 297 299 290
53 49 275 316 57 46 115 234 272 282 169 97 91 73 89 104 71 60 341 24 339 35 61 96 95 313 40 15 285 348 29 58 108 100 143 157 273 327 296 331 342 341 336 320 308
90 56 309 346 53 39 136 196 289 300 32 52 89 74 61 59 59 68 87 282 335 31 54 97 116 91 153 287 313 66 95 106 113 193 77 122 248 342 347 31 26 12 7 6 342
87 215 316 80 116 8 288 310 346 42 24 49 54 65 48 83 106 125 148 25 19 116 152 171 33 85 339 348 2 43 2 90 95 87 100 136 251 11 37 39 17 15 13 15 13
83 57 344 46 117 134 219 9 108 47 52 55 83 78 79 44 15 130 112 30 28 76 61 84 82 154 182 183 149 44 9 34 102 90 160 195 323 356 28 40 26 2 11 1 327
32 228 188 246 317 88 80 336 78 28 30 28 34 30 107 104 69 110 93 91 34 12 49 86 79 68 48 82 83 80 52 47 65 154 98 90 84 345 10 10 13 345 312 336 359
104 114 26 60 319 74 17 330 132 133 38 25 93 20 49 97 187 195 122 79 151 26 59 18 104 54 55 54 92 85 52 62 49 43 86 94 87 280 260 178 347 343 347 351 342
306 345 103 305 9 64 236 183 121 129 32 101 146 96 60 24 110 91 84 84 97 98 87 80 128 96 173 175 142 55 7 100 99 36 6 46 353 323 1 65 354 325 324 317 318